Location: Caltech
(34.1382°N, 118.1253°W)
Time: 17:38:39
(UTC-07:00)

JAS-2 - Visible Passes

Search period start: 24 July 2014 00:00
Search period end: 03 August 2014 00:00
Orbit: 800 x 1322 km, 98.5° (Epoch: 24 July)

Date Brightness Start Highest point End Pass type
(mag) Time Alt. Az. Time Alt. Az. Time Alt. Az.
24 Jul 13.1 20:37:53 10° W 20:38:47 10° W 20:39:39 10° W visible
26 Jul 13.0 20:31:48 10° WSW 20:33:56 11° W 20:36:03 10° WNW visible
28 Jul 12.9 20:26:16 10° WSW 20:29:05 12° W 20:31:53 10° WNW visible
30 Jul 12.8 20:20:54 10° WSW 20:24:14 13° W 20:27:32 10° WNW visible
01 Aug 12.8 20:15:39 10° WSW 20:19:24 14° W 20:23:05 10° WNW visible
